Weather Roundup
Issued by NWS

Home | Current Version | Previous Version | Graphics & Text | Print | Product List | Glossary Off
Versions: 1 2 3 4 5 6 7 8 9 10 11 12 13 14 15 16 17 18 19 20 21 22 23 24 25 26 27 28 29 30 31 32 33 34 35 36 37 38 39 40 41 42 43 44 45 46 47 48 49 50

000
NZUS93 KARX 212110
HRRWXR

CURRENT HOURLY OBSERVATIONS ACROSS
MUCH OF THE UPPER MISSISSIPPI VALLEY
NATIONAL WEATHER SERVICE LA CROSSE WI
400 PM CDT MON JUL 21 2014


...SOUTHEAST MINNESOTA...


CITY           SKY/WX    TMP DP  RH WIND       PRES   REMARKS
ROCHESTER      SUNNY     86  74  67 SE18G25   29.92F HX  94
ROCHESTER/MAYO FAIR      86  69  56 E14G25    29.92S HX  90
WINONA         CLOUDY    90  72  55 SE10      29.93F HX  96
AUSTIN         SUNNY     88  72  58 S16       29.89F HX  94
ALBERT LEA     SUNNY     86  73  66 S14G20    29.88F HX  93
DODGE CENTER   SUNNY     88  75  66 SE16G23   29.90F HX  97
PRESTON        SUNNY     85  76  73 S15G22    29.94F HX  94
OWATONNA       SUNNY     90  73  58 SE17      29.87F HX  98
FARIBAULT      MOSUNNY   91  72  52 SE16      29.87F HX  98
$$

...ELSEWHERE IN MINNESOTA...


CITY           SKY/WX    TMP DP  RH WIND       PRES   REMARKS
MINNEAPOLIS    PTSUNNY   91  74  57 S16       29.86F HX 100
INTNL FALLS    MOSUNNY   88  71  57 S6        29.83F HX  94
DULUTH         MOSUNNY   88  72  58 S14       29.89F HX  94
RED WING       PTSUNNY   91  73  55 SE8       29.88F HX 100
REDWOOD FALLS  CLOUDY    88  74  63 S20G25    29.83F HX  96
MANKATO        PTSUNNY   88  73  62 S16G22    29.86R HX  96
WORTHINGTON    MOSUNNY   81  73  78 S14       29.86F
FAIRMONT       CLOUDY    84  72  65 S17G23    29.88R
$$

...SOUTHWEST WISCONSIN...


CITY           SKY/WX    TMP DP  RH WIND       PRES   REMARKS
LA CROSSE      PTSUNNY   90  70  51 S14       29.94F HX  95
PRAIRIE DU CHI MOSUNNY   86  65  48 SE12G17   29.97S
BOSCOBEL       SUNNY     89  66  46 VRB6      29.98F HX  91
LONE ROCK      PTSUNNY   90  69  50 S9        30.00S HX  94
PLATTEVILLE    SUNNY     85  68  56 S12       30.03S
FORT MC COY    MOSUNNY   87  67  50 S9        29.97F HX  90
CAMP DOUGLAS   MOSUNNY   86  70  58 S8G18     29.99S HX  90
VIROQUA        CLOUDY    85  69  59 S10       30.00F
WIS DELLS      SUNNY     88  64  43 S12       30.01F
$$

...ELSEWHERE IN WISCONSIN...


CITY           SKY/WX    TMP DP  RH WIND       PRES   REMARKS
MILWAUKEE      MOSUNNY   81  65  58 SE16      30.05F
MADISON        MOSUNNY   86  66  51 S14       30.02F
GREEN BAY      SUNNY     85  67  54 S13       30.01F
EAU CLAIRE     MOSUNNY   90  72  55 S15       29.92F HX  97
BLACK RVR FLS  MOCLDY    88  68  51 S6        29.96S HX  91
MEDFORD        CLOUDY    83  72  67 S12       30.00S
WAUSAU         PTSUNNY   86  69  56 S13       29.98F HX  90
WIS RAPIDS     SUNNY     88  69  53 SW14      30.00S HX  92
MARSHFIELD     PTSUNNY   84  71  65 S14       29.99S
RICE LAKE      PTSUNNY   88  71  56 SE14      29.94S HX  93
$$

...NORTHEAST IOWA...


CITY           SKY/WX    TMP DP  RH WIND       PRES   REMARKS
WATERLOO       SUNNY     88  72  58 SE23G29   29.92S HX  94
DUBUQUE        SUNNY     83  69  62 S15G21    30.02S
DECORAH        SUNNY     84  72  65 SE10G18   29.95F
MASON CITY     MOSUNNY   85  74  69 S18       29.91R HX  92
CHARLES CITY   SUNNY     86  73  66 SE18      29.92F HX  93
OELWEIN        SUNNY     86  73  66 S15G24    29.96F HX  93
$$

...ELSEWHERE IN IOWA...


CITY           SKY/WX    TMP DP  RH WIND       PRES   REMARKS
DES MOINES     MOSUNNY   92  75  57 S18G25    29.89F HX 103
IOWA CITY      SUNNY     86  73  65 S15       29.99F HX  93
FORT DODGE     CLOUDY    84  75  74 S7        29.89S HX  92
MARSHALLTOWN   SUNNY     88  76  67 S22G30    29.90F HX  99
CEDAR RAPIDS   SUNNY     85  72  65 S15G25    29.97F HX  91
$$

...NORTHERN ILLINOIS...


CITY           SKY/WX    TMP DP  RH WIND       PRES   REMARKS
CHICAGO-OHARE  SUNNY     85  62  46 SW12      30.06S
DUPAGE         SUNNY     85  65  51 S12       30.06F
CHICAGO-MIDWAY SUNNY     86  62  44 S13       30.06F
MOLINE         SUNNY     85  69  58 S12G21    30.01S
ROCKFORD       MOSUNNY   85  68  56 S12       30.06S
STERLING       SUNNY     86  72  62 SW5       30.04S HX  92
PEORIA         MOSUNNY   86  68  54 S12       30.04F
$$

NOTE: "FAIR" INDICATES FEW OR NO CLOUDS BELOW 12,000 FEET WITH NO
SIGNIFICANT WEATHER AND/OR OBSTRUCTIONS TO VISIBILITY. WIND
SPEEDS ARE IN MILES-PER-HOUR.



USA.gov is the U.S. government's official web portal to all federal, state and local government web resources and services.